Location: Mouss�
(47.9236°N, 1.2701°W)
Time: 22:19:38
(UTC+00:00)

Cosmos 1470 Rocket - Pass Details

Date: 03 March 2021
Orbit: 603 x 634 km, 82.5° (Epoch: 20 April)

Event Time Altitude Azimuth Distance (km) Brightness Sun altitude
Rises 18:35:14 0° 172° (S) 2,917 6.9 -7.9°
Reaches altitude 10° 18:37:32 10° 166° (SSE) 2,012 6.1 -8.3°
Maximum altitude 18:41:48 47° 93° (E) 846 3.8 -9.0°
Drops below altitude 10° 18:46:05 10° 20° (NNE) 2,016 6.0 -9.7°
Sets 18:48:22 0° 15° (NNE) 2,923 6.9 -10.1°
